Regional Weather Roundup
Issued by NWS Sioux Falls, SD

Home | Current Version | Previous Version | Text Only | Print | Product List | Glossary On
Versions: 1 2 3 4 5 6 7 8 9 10 11 12 13 14 15 16 17 18 19 20 21 22 23 24 25 26 27 28 29 30 31 32 33 34 35 36 37 38 39 40 41 42 43 44 45 46 47 48 49 50
000
ASUS43 KFSD 262210
RWRFSD

WEATHER ROUNDUP FOR SE SOUTH DAKOTA/SW MINNESOTA/NW IOWA
NATIONAL WEATHER SERVICE SIOUX FALLS SD
500 PM CDT TUE JUL 26 2016

NOTE: "FAIR" INDICATES FEW OR NO CLOUDS BELOW 12,000 FEET WITH NO
SIGNIFICANT WEATHER AND OR OBSTRUCTIONS TO VISIBILITY.


SDZ038>040-050-052>070-262300-
SOUTHEAST SOUTH DAKOTA

CITY           SKY/WX    TMP DP  RH WIND       PRES   REMARKS
BROOKINGS      RAIN      76  71  85 N6        30.05R
CHAMBERLAIN    CLOUDY    81  71  73 NE14G24   29.95R
HURON          PTSUNNY   76  67  73 E9        29.97F
MADISON        LGT RAIN  77  77 100 E7        30.03F
MITCHELL       CLOUDY    88  60  38 SE12      29.97F
SIOUX FALLS    CLOUDY    85  64  49 SE12      30.01F
WINNER         MOCLDY    95  61  32 SE10      29.94F HX  95
YANKTON        MOSUNNY   88  66  48 SE16      29.96S
$$

MNZ071-072-080-081-089-090-097-098-262300-
SOUTHWEST MINNESOTA

CITY           SKY/WX    TMP DP  RH WIND       PRES   REMARKS
FAIRMONT       SUNNY     84  66  54 SW7       30.04F
JACKSON        SUNNY     86  63  45 S6        30.06F
LUVERNE        CLOUDY    81  64  57 S7        30.04S
MARSHALL       CLOUDY    84  69  60 W5        30.01F
MONTEVIDEO     CLOUDY    86  72  62 SW7       29.99F
PIPESTONE      MOSUNNY   82  68  61 S5        30.05S
REDWOOD FALLS  CLOUDY    87  64  46 SW12      30.00F
TRACY          MOSUNNY   85  69  59 S8        30.03F
WINDOM         SUNNY     86  64  48 SW5       30.05S
WORTHINGTON    SUNNY     84  67  56 S8        30.06F
$$

IAZ001>003-012>014-020>022-031-032-NEZ013-014-SDZ071-262300-
NORTHWEST IOWA

CITY           SKY/WX    TMP DP  RH WIND       PRES   REMARKS
CHEROKEE       SUNNY     86  66  50 S7        30.04S
DENISON        MOSUNNY   82  66  57 E5        30.02S
ESTHERVILLE    SUNNY     83  69  62 S8        30.05S
LE MARS        SUNNY     86  66  51 S10       30.02F
SHELDON        SUNNY     84  68  58 S7        30.03F
SIOUX CITY     SUNNY     88  64  44 SE13      30.01S
SPENCER        MOSUNNY   86  67  52 S7        30.05S
STORM LAKE     SUNNY     84  68  58 VRB5      30.06S
$$

ABBREVIATIONS USED IN REMARKS
   TC - TEMPERATURE IN CELSIUS
  WCI - WIND CHILL INDEX
   HX - HEAT INDEX
  VSB - VISIBILITY





USA.gov is the U.S. government's official web portal to all federal, state and local government web resources and services.